Погода Сумы

Хотите узнать прогноз погоды Сумы? Тогда Вам сюда: Погода Сумы

Поиск расширенной информации на нашем сайте:

Полезная информация:

Новости сайта



02.01.2020
Опубликован Долгосрочный прогноз погоды по городам России и ближнего зарубежья на январь 2020 года.
Карты: Прогноз на январь и февраль 2020 года, Сравнение прогнозируемой аномалии приземной температуры воздуха на январь 2020 года по разным моделям.




Погода Сумы - сегодня

Время (UTC), дата Ветер
(°,м/с) 
Видим.   Явления Облачность Т
(°С)
Тd
(°С)
f(%) Тe
(°С)
Pmin
(гПа)
dP
(гПа)
Po
(мм)
O2
(г/м3)
Тmin Tmax R s Состояние
почвы
21 29.11.20 130 (ЮВ) 4000 м  слаб. морось  10/10 120 м 
[St]
+3.6 +2.9 95 +2  1023.6  0.7  751  298           
00 30.11.20 280 (З) 4000 м  слаб. дождь{морось}  10/9 120 м средняя 
[Frnb|As op]
+2.1 +1.3 94 +1  1024.2  0.5  751  300         
03 30.11.20 300 (СЗ) 4000 м  слаб. дождь  10/9 150 м средняя 
[Frnb|As op]
+1.6 +0.8 94 +1  1024.9  0.6  752  301           
06 30.11.20 тихо ()   4000 м  слаб. дождь  10/9 240 м средняя 
[Frnb|As op]
+0.6 +0 96 +1  1025.9  0.9  752  302  +0.6       
09 30.11.20 340 (С) 4000 м  слаб. дождь  10/9 150 м средняя 
[Frnb|As op]
+1 +0.5 96 +2  1026.4  0.5  753  302           
12 30.11.20 360 (С) 2000 м  в посл. час дождь  10/9 100 м средняя 
[Frnb|As op]
+1.9 +1.6 98 +1  1025.8  -0.5  752  301         
15 30.11.20 330 (СЗ) 0500 м  слаб. морось{туман}  ?/?  
[]
+1.9 +1.9 100 +3  1025.8  752  301           
18 30.11.20 130 (ЮВ) 2000 м  слаб. морось{туман}  10/10 100 м 
[St]
+3 +2.7 98 1026  0.3  752  299    +3.3     
21 30.11.20 110 (В) 10 км  {морось}  10/10 150 м 
[St]
+2.1 +1.3 94 -1  1026.1  752  301           
00 01.12.20 080 (В) 10 км  слаб. морось  10/10 150 м 
[St]
+1.5 +1 96 +1  1026.1  752  301      0.3     
03 01.12.20 100 (В) 10 км  слаб. дождь со снегом{морось}  10/9 120 м средняя 
[Frnb|As op]
+0.4 -0.4 94 -3  1026.8  0.6  753  303           
06 01.12.20 110 (В) 10 км  {дождь, морось}  10/10 180 м 
[St]
+0.3 -0.5 94 -3  1027.5  0.6  753  303  +0.3    0.4     
09 01.12.20 110 (В) 10 км    10/10 240 м 
[St]
+0.4 -0.4 94 -3  1028.2  0.7  754  303           
12 01.12.20 080 (В) 10 км    10/10 180 м 
[St]
+0.2 -0.7 94 -2  1028  -0.2  754  304           
15 01.12.20 080 (В) 10 км    10/10 180 м 
[St]
-0.3 -1.8 90 -3  1028.7  0.7  754  304           
21 01.12.20 080 (В) 10 км    8/0 средняя 
[Ac trans]
-2.3 -5.5 79 -5  1029.5  0.1  755  307           
03 02.12.20 080 (В) 10 км    10/10 300 м 
[St]
-2.3 -4.8 83 -6  1029.4  -0.4  755  307           
06 02.12.20 080 (В) 4000 м  слаб. снег  10/9 180 м средняя 
[Frnb|As op]
-3.9 -4.7 94 -6  1030.4  0.8  755  309  -3.9    0.2  <0.5  равномерный
сухой снег
100% 
09 02.12.20 120 (ЮВ) 10 км  {снег}  10/8 270 м средняя 
[St|Ac und]
-3.9 -6.1 85 -8  1030.8  0.4  755  309           
12 02.12.20 100 (В) 10 км  {снег}  10/10 240 м 
[St]
-3.9 -6.5 82 -7  1030.6  -0.2  755  309      0.0     
15 02.12.20 100 (В) 10 км  слаб. снег  10/9 330 м средняя 
[Frnb|As op]
-3.8 -5.6 87 -7  1030.7  0.1  755  309           
18 02.12.20 110 (В) 10 км  {снег}  10/10 270 м 
[St]
-3.7 -5.2 89 -7  1030.9  0.2  756  309    -3.7  0.0     
21 02.12.20 110 (В) 10 км    10/10 300 м 
[St]
-3.8 -6 85 -8  1030.7  -0.2  755  309           
00 03.12.20 130 (ЮВ) 10 км    10/10 210 м 
[St]
-3.9 -4.7 94 -7  1031  0.3  756  309           
03 03.12.20 120 (ЮВ) 10 км  слаб. снег  10/9 180 м средняя 
[Frnb|As op]
-3.5 -4.3 94 -7  1030.2  -0.8  755  309           
Время (UTC), дата Ветер
(°,м/с) 
Видим.   Явления Облачность Т
(°С)
Тd
(°С)
f(%) Тe
(°С)
Pmin
(гПа)
dP
(гПа)
Po
(мм)
O2
(г/м3)
Тmin Tmax R s Состояние
почвы

Для получения пояснительной информации подведите курсор к названию столбца.

ПОГОДА Сумы - архив

Всё, что Вы хотите узнать о погоде Сумы - удобно и подробно!

Выберите нужную дату (начиная с 1 января 2019* года) и нажмите кнопку "Найти".
Будут отображены архивные сводки погоды по пункту Сумы, начиная с указанной даты.


Отображать данные в формате CSV (для использования в таблицах Excel)


Внимание! Наш архив погоды предназначен исключительно для личного некоммерческого использования в познавательных целях. Если Вам необходимы официальные справки о состоянии погоды (для производственных, юридических, коммерческих и т.п. целей), обращайтесь в органы Росгидромета.

*Примечание: данная дата относится к архиву по метеостанциям СССР (Россия, СНГ, Балтия).
Архив по метеостанциям Зарубежной Европы и Азии (кроме Китая) хранится 10 дней, по другим регионам земного шара (Китай, Африка, Америка, Австралия, Океания) - 1 день.

Сумы - район местоположения метеостанции


Название, широта, долгота, высота метеостанции:
Сумы 50.9°ш. 34.7°д. 181 м над ур. моря [Украина]

Дополнительная информация

В oтличие oт бoльшинства пoгoдных сайтoв мы публикуем пoдрoбную метеoинфoрмацию в детальнoм прoфессиoнальнoм фoрмате.

Характеристики температуры и влажнoсти вoздуха измеряются на высoте 2 м в тени вдали oт зданий и деревьев.
Скoрoсть ветра измеряется на высoте 10 м (на урoвне рoста челoвека скoрoсть ветра ниже в 1.5-2 раза). Если метеoстанция нахoдится в гoрoде или в лесу, тo скoрoсть ветра занижена на 2-4 м/с пo сравнению с oткрытым местoм. Скoрoсть ветра над акватoриями крупных рек и oзёр, а также на вершинах хoлмoв на 2-5 м/с выше, чем в oбычных услoвиях.
Атмoсфернoе давление в разных тoчках местнoсти мoжет значительнo oтличаться oт давления на метеoстанции, в зависимoсти oт услoвий рельефа (при пoдъёме на 10 м давление пoнижается примернo на 1 мм рт.ст.).